Miscellaneous Local Product
Issued by NWS Hastings, NE

Home | Current Version | Previous Version | Graphics & Text | Print | Product List | Glossary On
Versions: 1 2 3 4 5 6 7 8 9 10 11 12 13 14 15 16 17 18 19 20 21 22 23 24 25 26 27 28 29 30 31 32 33 34 35 36 37 38 39 40 41 42 43 44 45 46 47 48 49 50
000
AXUS43 KGID 171502
MISGRI

GID CWA HOURLY WEATHER ROUNDUP
NATIONAL WEATHER SERVICE HASTINGS NE
1000 AM CDT THU AUG 17 2017

NOTE: "FAIR" INDICATES FEW OR NO CLOUDS BELOW 12,000 FEET WITH NO
SIGNIFICANT WEATHER AND/OR OBSTRUCTIONS TO VISIBILITY.

...SOUTH CENTRAL NEBRASKA...

CITY           SKY/WX    TMP DP  RH WIND       PRES   REMARKS
GRAND ISLAND   SUNNY     69  58  67 W10       30.02S
HASTINGS       SUNNY     69  56  62 W9        30.04S
KEARNEY        SUNNY     71  57  61 W5        30.04S
ORD            SUNNY     69  52  54 W7        30.01R
YORK           SUNNY     66  61  82 W12       30.01R
AURORA         SUNNY     66  59  77 W8        30.01S
LEXINGTON      SUNNY     68  60  75 W5        30.06S
HOLDREGE       SUNNY     70  56  61 W6        30.06R
HEBRON         SUNNY     71  60  70 NW8       30.01S

...NEBRASKA PANHANDLE...

CITY           SKY/WX    TMP DP  RH WIND       PRES   REMARKS
CHADRON        SUNNY     68  53  58 W3        29.99F
ALLIANCE       SUNNY     70  54  56 S10G23    30.05F
SCOTTSBLUFF    SUNNY     66  55  67 E7        30.05F
SIDNEY         SUNNY     68  53  58 SW13      30.12S

...WESTERN AND NORTH CENTRAL NEBRASKA...

CITY           SKY/WX    TMP DP  RH WIND       PRES   REMARKS
VALENTINE      SUNNY     67  54  63 SW7       30.01S
AINSWORTH      SUNNY     69  58  70 W3        30.02S
ONEILL         SUNNY     67  56  67 W6        30.00S
BROKEN BOW     SUNNY     69  56  62 W6        30.04S
IMPERIAL       SUNNY     70  58  65 SW6       30.10F
NORTH PLATTE   SUNNY     67  59  75 W7        30.07F
MCCOOK         SUNNY     66  60  81 W8        30.09S

...EASTERN NEBRASKA...

CITY           SKY/WX    TMP DP  RH WIND       PRES   REMARKS
NORFOLK        SUNNY     68  57  68 W12       29.95R
SO SIOUX CITY  SUNNY     70  61  73 NW14G24   29.90R
TEKAMAH        SUNNY     71  60  68 NW15G21   29.91R
COLUMBUS       SUNNY     68  58  70 W13       29.98R
ALBION         SUNNY     70  57  62 NW7       30.00R
OMAHA EPPLEY   SUNNY     72  60  66 NW16      29.91R
OFFUTT AFB     SUNNY     73  59  61 NW15      29.91R
MILLARD        SUNNY     73  61  65 NW14G20   29.93R
LINCOLN        SUNNY     72  58  61 NW14      29.97R
NEBRASKA CITY  SUNNY     72  62  71 NW13G20   29.94R
BEATRICE       SUNNY     70  61  73 W10       29.99R
FALLS CITY     SUNNY     72  61  68 W14       29.94R

...NORTHERN KANSAS...

CITY           SKY/WX    TMP DP  RH WIND       PRES   REMARKS
GOODLAND       MOSUNNY   71  59  65 SW12      30.13S
HILL CITY      SUNNY     72  63  73 W9        30.09S
NORTON         SUNNY     72  57  60 SW10      30.08S
PHILLIPSBURG   SUNNY     72  63  73 SW5       30.06F
SMITH CENTER   MOSUNNY   66  63  88 W5        30.06R
HAYS           SUNNY     72  63  73 NW10      30.08S
RUSSELL        SUNNY     73  59  61 NW8       30.06R
CONCORDIA      SUNNY     70  64  81 W9        30.02R
SALINA         SUNNY     75  61  61 NW13      30.03R
TOPEKA         SUNNY     73  66  78 W9        29.98R



USA.gov is the U.S. government's official web portal to all federal, state and local government web resources and services.